sat.trackr.live / text

‹ back to catalog

STARLINK-34947

NORAD 65184 · 2025-175L

PAYLOAD ACTIVE UNKNOWN

§ Identity

Operator
Country
US
Launch date
2025-08-14
Launch site
AFWTR
Launch vehicle
Mass (kg)
RCS (m²)

Purposes: comms

External: N2YO · Heavens-Above · Gunter

§ Orbital elements

Epoch: 2026-05-25T03:25:59.189952Z

Period
95.64 min
Inclination
97.4496°
Eccentricity
0.0001864
Mean motion
15.05642841 rev/d
Perigee alt
548.2 km
Apogee alt
550.8 km
Semi-major
6,927.7 km
B*
1.1149e-3
RAAN
17.6257°
Arg perigee
96.7043°
Mean anomaly
263.4397°
Rev number
4,414

§ Raw data

STARLINK-349471 65184U 25175L   26145.14304618  .00016062  00000+0  11149-2 0  99912 65184  97.4496  17.6257 0001864  96.7043 263.4397 15.05642841 44144

JSON: /api/v1/satellites/65184 · /tle

For live sub-satellite position, see the globe view (requires WebGL).

§ Visibility from observer

Set your observer location to see the next 7 days of passes ≥ 10°. The values pass through the URL so the page stays shareable.

No JS? Fill the form by hand. The geolocation button needs JavaScript.